Home > Weather > Pierre > Past weeks

Flag for USA Past Weather in Pierre, South Dakota, USA — Yesterday and Last 2 Weeks

Now
62 °F

Clear.


Feels Like: 62 °F
Forecast: 63 / 88 °F
Wind: 8 mph from Southeast

Location: Pierre Regional Airport

Current Time: Jul 30, 2016 at 6:14:25 AM

Latest Report: Jul 30, 2016 at 5:53 AM


Visibility: 10 mi

Pressure: 29.89 "Hg

Humidity: 83%

Dew Point: 57 °F

Location of PierreLocation

Past Weather in Pierre — Graph

°F

Pierre Temperature Yesterday

Maximum temperature yesterday: 84 °F (at 5:53 PM)
Minimum temperature yesterday: 61 °F (at 5:53 AM)
Average temperature yesterday: 72 °F

High & Low Weather Summary for the Past Weeks

 TemperatureHumidityPressure
High108 °F (Jul 20, 4:53 PM)100% (Jul 22, 4:53 AM)30.11 "Hg (Jul 22, 4:53 AM)
Low56 °F (Jul 15, 4:53 AM)16% (Jul 20, 5:53 PM)29.64 "Hg (Jul 16, 6:53 PM)
Average78 °F62%29.92 "Hg
* Reported Jul 15 4:53 AM — Jul 30 4:53 AM, Pierre, Weather by CustomWeather, © 2016

Note: Actual official high and low records may vary slightly from our data, if they occured in-between our weather recording intervals... More about our weather records

Advertising

Pierre Weather History for the Previous 24 Hours

Scroll right to see more
 ConditionsComfort  
Time TempWeatherWind HumidityBarometerVisibility
4:53 AM
Sat, Jul 30
63 °FClear.7 mph78%29.90 "Hg10 mi
3:53 AM64 °FClear.10 mph73%29.92 "Hg10 mi
2:53 AM66 °FPassing clouds.14 mph68%29.93 "Hg10 mi
1:53 AM68 °FClear.14 mph63%29.93 "Hg10 mi
12:53 AM70 °FClear.13 mph61%29.94 "Hg10 mi
11:53 PM
Fri, Jul 29
69 °FClear.12 mph63%29.94 "Hg10 mi
10:53 PM70 °FClear.10 mph64%29.95 "Hg10 mi
9:53 PM72 °FPassing clouds.9 mph59%29.94 "Hg10 mi
8:53 PM76 °FBroken clouds.14 mph48%29.93 "Hg10 mi
7:53 PM80 °FPassing clouds.10 mph42%29.93 "Hg10 mi
6:53 PM81 °FPassing clouds.13 mph39%29.93 "Hg10 mi
5:53 PM84 °FSunny.15 mph37%29.94 "Hg10 mi
4:53 PM82 °FSunny.10 mph41%29.96 "Hg10 mi
3:53 PM82 °FPassing clouds.14 mph41%29.97 "Hg10 mi
2:53 PM81 °FPassing clouds.15 mph42%29.99 "Hg10 mi
1:53 PM80 °FPassing clouds.12 mph44%30.02 "Hg10 mi
12:53 PM77 °FPassing clouds.12 mph56%30.04 "Hg10 mi
11:53 AM76 °FPassing clouds.10 mph58%30.05 "Hg10 mi
10:53 AM73 °FPartly sunny.No wind64%30.05 "Hg10 mi
9:53 AM70 °FOvercast.5 mph71%30.06 "Hg10 mi
8:53 AM68 °FOvercast.3 mph82%30.06 "Hg10 mi
7:53 AM64 °FOvercast.3 mph94%30.06 "Hg10 mi
6:53 AM62 °FPassing clouds.5 mph96%30.06 "Hg10 mi
Weather by CustomWeather, © 2016

See weather overviewHow to use our weather pages